FWI649 MMUN-LFPO

Flight info

Callsign FWI649
Flight time N/A
Altitude 37000
Route NUDAL1A NUDAL UV106 PODON UG765 FRANT UR522 UHA J1 UVA DCT ENAMO DCT ZWICK DCT KFFER DCT DONEZ DCT MUVOD DCT DIAZZ DCT KRTIS DCT WITOB DCT ALUTE DCT MLSAP DCT MILLE/M084F370 M330 DUNIG/M084F390 M330 SHEIL DCT LAZEY DCT 3430N06000W 41N050W 45N040W 47N030W 48N020W 48N010W DCT ETIKI DCT REGHI/N0487F390 DCT ARZIP DCT KORER UN482 ANG/N0477F270 UN482 DEKJA/N0484F280 UN482 NIMER DCT CAD
Aircraft A359/H-SDE2E3GHIJ3J4J5LM1ORWXY/LB1D1

Departure

Time 2026-05-04 19:30
Airport Cancún International Airport (MMUN)

Arrival

Time N/A
Airport Paris-Orly Airport (LFPO)
Time Latitude Longitude Altitude Speed Heading
2026-05-04 19:02 21.03543 -86.86802 35 ft 0 kts 337°
2026-05-04 19:15 21.03540 -86.86801 54 ft 3 kts 337°
2026-05-04 19:16 21.03516 -86.86790 34 ft 4 kts 339°
2026-05-04 19:16 21.03491 -86.86781 33 ft 4 kts 335°
2026-05-04 19:16 21.03477 -86.86770 32 ft 4 kts 296°
2026-05-04 19:16 21.03471 -86.86756 33 ft 4 kts 249°
2026-05-04 19:17 21.03478 -86.86746 31 ft 4 kts 206°
2026-05-04 19:17 21.03502 -86.86733 32 ft 3 kts 213°
2026-05-04 19:17 21.03508 -86.86729 33 ft 0 kts 214°
2026-05-04 19:22 21.03503 -86.86733 31 ft 4 kts 214°
2026-05-04 19:22 21.03474 -86.86754 33 ft 6 kts 214°
2026-05-04 19:23 21.03438 -86.86779 35 ft 7 kts 214°
2026-05-04 19:23 21.03396 -86.86809 34 ft 8 kts 214°
2026-05-04 19:23 21.03352 -86.86849 36 ft 10 kts 242°
2026-05-04 19:23 21.03383 -86.86949 36 ft 20 kts 303°
2026-05-04 19:24 21.03472 -86.87092 37 ft 22 kts 304°
2026-05-04 19:24 21.03558 -86.87228 37 ft 22 kts 303°
2026-05-04 19:24 21.03644 -86.87368 37 ft 23 kts 304°
2026-05-04 19:24 21.03733 -86.87509 37 ft 23 kts 303°
2026-05-04 19:25 21.03823 -86.87655 37 ft 24 kts 303°
2026-05-04 19:25 21.03916 -86.87803 37 ft 24 kts 304°
2026-05-04 19:25 21.04012 -86.87954 36 ft 25 kts 304°
2026-05-04 19:25 21.04110 -86.88108 36 ft 25 kts 305°
2026-05-04 19:26 21.04210 -86.88265 36 ft 26 kts 303°
2026-05-04 19:26 21.04309 -86.88425 37 ft 26 kts 303°
2026-05-04 19:26 21.04410 -86.88589 37 ft 26 kts 303°
2026-05-04 19:26 21.04513 -86.88754 36 ft 27 kts 304°
2026-05-04 19:27 21.04618 -86.88920 36 ft 24 kts 303°
2026-05-04 19:27 21.04629 -86.88938 36 ft 0 kts 300°
2026-05-04 19:27 21.04638 -86.88966 36 ft 12 kts 279°
2026-05-04 19:28 21.04607 -86.89021 37 ft 7 kts 217°
2026-05-04 19:28 21.04563 -86.89056 38 ft 12 kts 216°
2026-05-04 19:28 21.04499 -86.89044 38 ft 9 kts 137°
2026-05-04 19:28 21.04486 -86.89026 39 ft 0 kts 123°
2026-05-04 19:29 21.04481 -86.89017 39 ft 10 kts 123°
2026-05-04 19:29 21.04331 -86.88776 41 ft 69 kts 124°
2026-05-04 19:29 21.03957 -86.88178 40 ft 123 kts 124°
2026-05-04 19:30 21.03396 -86.87278 104 ft 162 kts 123°
2026-05-04 19:30 21.02824 -86.86284 722 ft 158 kts 120°
2026-05-04 19:30 21.02306 -86.85201 1240 ft 171 kts 115°
2026-05-04 19:30 21.01739 -86.83997 1572 ft 192 kts 116°
2026-05-04 19:31 21.01076 -86.82669 1820 ft 215 kts 117°
2026-05-04 19:31 21.00317 -86.81182 2065 ft 239 kts 118°
2026-05-04 19:31 20.99471 -86.79576 2449 ft 254 kts 120°
2026-05-04 19:31 20.98584 -86.77912 3034 ft 261 kts 120°
2026-05-04 19:32 20.97688 -86.76233 3656 ft 265 kts 120°
2026-05-04 19:32 20.96759 -86.74481 4271 ft 269 kts 119°
2026-05-04 19:32 20.96089 -86.72603 4769 ft 273 kts 99°
2026-05-04 19:32 20.96159 -86.70601 5195 ft 276 kts 79°
2026-05-04 19:33 20.96551 -86.68577 5822 ft 279 kts 78°
2026-05-04 19:33 20.96960 -86.66537 6469 ft 282 kts 78°
2026-05-04 19:33 20.97364 -86.64466 7071 ft 285 kts 78°
2026-05-04 19:33 20.97764 -86.62375 7708 ft 289 kts 78°
2026-05-04 19:34 20.98173 -86.60264 8356 ft 292 kts 77°
2026-05-04 19:34 20.98773 -86.58179 9017 ft 295 kts 69°
2026-05-04 19:34 20.99492 -86.56108 9681 ft 299 kts 69°
2026-05-04 19:34 21.00231 -86.54013 10248 ft 306 kts 69°
2026-05-04 19:35 21.01000 -86.51824 10521 ft 323 kts 69°
2026-05-04 19:35 21.01806 -86.49518 10769 ft 339 kts 69°
2026-05-04 19:35 21.02650 -86.47094 11008 ft 355 kts 69°
2026-05-04 19:35 21.03529 -86.44568 11245 ft 369 kts 69°
2026-05-04 19:36 21.04439 -86.41946 11486 ft 382 kts 69°
2026-05-04 19:36 21.05375 -86.39250 11775 ft 391 kts 69°
2026-05-04 19:36 21.06330 -86.36493 12175 ft 397 kts 69°
2026-05-04 19:36 21.07295 -86.33706 12604 ft 401 kts 69°
2026-05-04 19:37 21.08269 -86.30894 13039 ft 405 kts 69°
2026-05-04 19:37 21.09254 -86.28048 13484 ft 409 kts 69°
2026-05-04 19:37 21.10246 -86.25177 13902 ft 413 kts 69°
2026-05-04 19:37 21.11245 -86.22288 14283 ft 416 kts 69°
2026-05-04 19:38 21.12252 -86.19371 14669 ft 419 kts 69°
2026-05-04 19:38 21.13266 -86.16434 15043 ft 422 kts 69°
2026-05-04 19:38 21.14289 -86.13469 15425 ft 425 kts 69°
2026-05-04 19:38 21.15315 -86.10493 15799 ft 428 kts 69°
2026-05-04 19:39 21.16348 -86.07493 16169 ft 431 kts 69°
2026-05-04 19:39 21.17374 -86.04514 16530 ft 434 kts 69°
2026-05-04 19:39 21.18422 -86.01466 16890 ft 437 kts 69°
2026-05-04 19:39 21.19400 -85.98368 17243 ft 440 kts 74°
2026-05-04 19:40 21.20091 -85.95164 17600 ft 443 kts 78°
2026-05-04 19:40 21.20706 -85.91912 17948 ft 446 kts 78°
2026-05-04 19:40 21.21318 -85.88644 18288 ft 449 kts 78°
2026-05-04 19:40 21.21937 -85.85355 18582 ft 452 kts 78°
2026-05-04 19:41 21.22562 -85.82044 18871 ft 454 kts 78°
2026-05-04 19:41 21.23190 -85.78723 19171 ft 457 kts 77°
2026-05-04 19:41 21.23822 -85.75379 19476 ft 459 kts 77°
2026-05-04 19:41 21.24458 -85.72015 19780 ft 461 kts 77°
2026-05-04 19:42 21.25096 -85.68641 20087 ft 463 kts 77°
2026-05-04 19:42 21.25906 -85.65292 20368 ft 464 kts 69°
2026-05-04 19:42 21.27247 -85.62159 20668 ft 463 kts 57°
2026-05-04 19:42 21.29158 -85.59392 20983 ft 460 kts 44°
2026-05-04 19:43 21.31394 -85.56937 21293 ft 461 kts 40°
2026-05-04 19:43 21.33743 -85.54596 21630 ft 462 kts 38°
2026-05-04 19:43 21.36146 -85.52302 21962 ft 463 kts 38°
2026-05-04 19:43 21.38568 -85.50015 22314 ft 466 kts 38°
2026-05-04 19:44 21.41004 -85.47704 22653 ft 468 kts 38°
2026-05-04 19:44 21.43435 -85.45374 22987 ft 470 kts 38°
2026-05-04 19:44 21.45874 -85.43016 23318 ft 473 kts 38°
2026-05-04 19:44 21.48317 -85.40638 23643 ft 475 kts 38°
2026-05-04 19:45 21.50763 -85.38247 23916 ft 477 kts 38°
2026-05-04 19:45 21.53225 -85.35837 24200 ft 479 kts 38°
2026-05-04 19:45 21.55692 -85.33418 24505 ft 481 kts 38°
2026-05-04 19:45 21.58169 -85.30990 24812 ft 483 kts 38°
2026-05-04 19:46 21.60654 -85.28554 25139 ft 485 kts 38°
2026-05-04 19:46 21.63152 -85.26105 25476 ft 487 kts 38°
2026-05-04 19:46 21.65664 -85.23641 25836 ft 490 kts 38°
2026-05-04 19:46 21.68183 -85.21171 26193 ft 492 kts 38°
2026-05-04 19:47 21.70715 -85.18686 26548 ft 494 kts 38°
2026-05-04 19:47 21.73259 -85.16188 26924 ft 496 kts 38°
2026-05-04 19:47 21.75817 -85.13675 27289 ft 499 kts 38°
2026-05-04 19:47 21.78381 -85.11155 27639 ft 501 kts 38°
2026-05-04 19:48 21.80969 -85.08610 28000 ft 504 kts 38°
2026-05-04 19:48 21.83557 -85.06064 28349 ft 506 kts 38°
2026-05-04 19:48 21.86163 -85.03499 28689 ft 509 kts 38°
2026-05-04 19:48 21.88779 -85.00921 29020 ft 511 kts 38°
2026-05-04 19:49 21.91410 -84.98329 29335 ft 514 kts 38°
2026-05-04 19:49 21.94021 -84.95755 29635 ft 516 kts 38°
2026-05-04 19:49 21.96712 -84.93099 29934 ft 519 kts 38°
2026-05-04 19:49 21.99339 -84.90506 30191 ft 521 kts 38°
2026-05-04 19:50 22.02012 -84.87867 30427 ft 523 kts 38°
2026-05-04 19:50 22.04692 -84.85217 30762 ft 522 kts 38°
2026-05-04 19:50 22.07367 -84.82570 31133 ft 521 kts 38°
2026-05-04 19:50 22.10037 -84.79927 31478 ft 521 kts 38°
2026-05-04 19:51 22.12706 -84.77284 31805 ft 521 kts 38°
2026-05-04 19:51 22.15371 -84.74644 32132 ft 520 kts 38°
2026-05-04 19:51 22.18036 -84.72004 32455 ft 520 kts 38°
2026-05-04 19:51 22.20698 -84.69364 32798 ft 519 kts 38°
2026-05-04 19:52 22.23355 -84.66729 33127 ft 519 kts 38°
2026-05-04 19:52 22.26007 -84.64097 33443 ft 518 kts 38°
2026-05-04 19:52 22.28662 -84.61462 33753 ft 518 kts 38°
2026-05-04 19:52 22.31309 -84.58832 34047 ft 517 kts 38°
2026-05-04 19:53 22.33957 -84.56201 34272 ft 518 kts 38°
2026-05-04 19:53 22.36620 -84.53554 34443 ft 520 kts 38°
2026-05-04 19:53 22.39281 -84.50907 34614 ft 521 kts 37°
2026-05-04 19:53 22.41949 -84.48252 34804 ft 522 kts 37°
2026-05-04 19:54 22.44624 -84.45587 34995 ft 523 kts 37°
2026-05-04 19:54 22.47306 -84.42914 35176 ft 525 kts 37°
2026-05-04 19:54 22.49992 -84.40235 35350 ft 526 kts 37°
2026-05-04 19:54 22.52683 -84.37550 35535 ft 527 kts 37°
2026-05-04 19:55 22.55379 -84.34858 35716 ft 528 kts 37°
2026-05-04 19:55 22.58077 -84.32163 35883 ft 529 kts 37°
2026-05-04 19:55 22.60785 -84.29456 36050 ft 530 kts 37°
2026-05-04 19:55 22.63489 -84.26750 36219 ft 531 kts 37°
2026-05-04 19:56 22.66057 -84.23843 36386 ft 537 kts 44°
2026-05-04 19:56 22.68513 -84.20786 36545 ft 538 kts 44°
2026-05-04 19:56 22.70894 -84.17638 36668 ft 543 kts 50°
2026-05-04 19:56 22.72891 -84.14144 36819 ft 550 kts 60°
2026-05-04 19:57 22.74326 -84.10277 36938 ft 556 kts 72°
2026-05-04 19:57 22.75883 -84.02069 36993 ft 564 kts 79°
2026-05-04 19:58 22.77077 -83.93657 36994 ft 564 kts 81°
2026-05-04 19:58 22.78247 -83.85254 36992 ft 564 kts 80°
2026-05-04 19:59 22.79462 -83.76854 36992 ft 564 kts 80°
2026-05-04 19:59 22.80698 -83.68449 36993 ft 564 kts 80°
2026-05-04 20:00 22.81932 -83.60052 36992 ft 564 kts 80°
2026-05-04 20:00 22.83161 -83.51648 36995 ft 564 kts 80°
2026-05-04 20:01 22.84382 -83.43244 36999 ft 565 kts 80°
2026-05-04 20:01 22.85601 -83.34835 37003 ft 565 kts 80°
2026-05-04 20:02 22.86802 -83.26420 36999 ft 565 kts 81°
2026-05-04 20:02 22.87931 -83.17996 36998 ft 565 kts 81°
2026-05-04 20:03 22.89046 -83.09572 36996 ft 564 kts 81°
2026-05-04 20:03 22.90169 -83.01153 36996 ft 564 kts 81°
2026-05-04 20:04 22.91294 -82.92728 36996 ft 564 kts 81°
2026-05-04 20:04 22.92415 -82.84313 36998 ft 564 kts 81°
2026-05-04 20:05 22.93532 -82.75889 37002 ft 564 kts 81°
2026-05-04 20:05 22.94643 -82.67471 37010 ft 564 kts 81°
2026-05-04 20:06 22.95748 -82.59057 37015 ft 564 kts 81°
2026-05-04 20:06 22.96844 -82.50686 37019 ft 564 kts 81°
2026-05-04 20:07 22.97852 -82.42200 37029 ft 564 kts 86°
2026-05-04 20:07 22.98344 -82.33708 37024 ft 564 kts 87°
2026-05-04 20:08 22.98739 -82.25270 37013 ft 564 kts 87°
2026-05-04 20:08 22.99124 -82.16723 37016 ft 564 kts 87°
2026-05-04 20:09 22.99511 -82.08225 37013 ft 564 kts 87°
2026-05-04 20:09 22.99900 -81.99726 37008 ft 564 kts 87°
2026-05-04 20:10 23.00302 -81.91224 37001 ft 564 kts 87°
2026-05-04 20:10 23.00717 -81.82734 37007 ft 563 kts 87°
2026-05-04 20:11 23.01126 -81.74252 36996 ft 563 kts 87°
2026-05-04 20:11 23.01528 -81.65776 37003 ft 562 kts 87°
2026-05-04 20:12 23.01921 -81.57362 36987 ft 561 kts 87°
2026-05-04 20:12 23.02311 -81.48900 36987 ft 561 kts 88°
2026-05-04 20:13 23.03168 -81.40498 36998 ft 560 kts 81°
2026-05-04 20:13 23.04348 -81.32138 36995 ft 560 kts 81°
2026-05-04 20:14 23.05568 -81.23785 37002 ft 560 kts 81°
2026-05-04 20:14 23.06778 -81.15430 36996 ft 560 kts 81°
2026-05-04 20:15 23.07972 -81.07070 37003 ft 560 kts 81°
2026-05-04 20:15 23.09159 -80.98711 37001 ft 560 kts 81°
2026-05-04 20:16 23.10141 -80.91764 36996 ft 560 kts 81°
2026-05-04 20:16 23.11319 -80.83403 36994 ft 560 kts 81°
2026-05-04 20:17 23.12493 -80.75046 37003 ft 560 kts 81°
2026-05-04 20:17 23.13664 -80.66675 36995 ft 560 kts 81°
2026-05-04 20:18 23.14830 -80.58305 37001 ft 560 kts 81°
2026-05-04 20:18 23.15992 -80.49935 37000 ft 561 kts 81°
2026-05-04 20:19 23.17151 -80.41544 36990 ft 561 kts 81°
2026-05-04 20:19 23.18306 -80.33159 36988 ft 562 kts 82°
2026-05-04 20:20 23.19459 -80.24751 36989 ft 562 kts 82°
2026-05-04 20:20 23.20607 -80.16343 36989 ft 563 kts 82°
2026-05-04 20:21 23.21752 -80.07924 36999 ft 563 kts 82°
2026-05-04 20:21 23.23465 -79.95270 36998 ft 564 kts 82°
2026-05-04 20:22 23.24602 -79.86823 36996 ft 565 kts 82°
2026-05-04 20:22 23.25735 -79.78369 36993 ft 565 kts 82°
2026-05-04 20:23 23.26864 -79.69909 36991 ft 566 kts 82°
2026-05-04 20:23 23.27983 -79.61495 36991 ft 566 kts 82°
2026-05-04 20:24 23.29104 -79.53027 36990 ft 566 kts 82°
2026-05-04 20:24 23.30221 -79.44556 36992 ft 566 kts 82°
2026-05-04 20:25 23.31333 -79.36081 36992 ft 566 kts 82°
2026-05-04 20:25 23.32442 -79.27599 36989 ft 566 kts 82°
2026-05-04 20:26 23.33546 -79.19114 36991 ft 567 kts 82°
2026-05-04 20:26 23.34646 -79.10628 36990 ft 567 kts 82°
2026-05-04 20:27 23.35743 -79.02124 36992 ft 567 kts 82°
2026-05-04 20:27 23.36836 -78.93619 36993 ft 567 kts 82°
2026-05-04 20:28 23.37924 -78.85109 36994 ft 568 kts 82°
2026-05-04 20:28 23.39008 -78.76598 36991 ft 568 kts 82°
2026-05-04 20:29 23.40084 -78.68115 36991 ft 568 kts 82°
2026-05-04 20:29 23.41161 -78.59577 36990 ft 569 kts 82°
2026-05-04 20:30 23.42234 -78.51038 36989 ft 569 kts 82°
2026-05-04 20:30 23.43302 -78.42502 36992 ft 569 kts 82°
2026-05-04 20:31 23.44368 -78.33942 36992 ft 570 kts 82°
2026-05-04 20:31 23.45423 -78.25434 36992 ft 570 kts 82°
2026-05-04 20:32 23.46480 -78.16864 36991 ft 570 kts 82°
2026-05-04 20:32 23.47532 -78.08300 36990 ft 571 kts 82°
2026-05-04 20:33 23.48581 -77.99725 36990 ft 571 kts 82°
2026-05-04 20:33 23.49625 -77.91145 36989 ft 571 kts 82°
2026-05-04 20:34 23.50657 -77.82622 36988 ft 571 kts 82°
2026-05-04 20:34 23.51692 -77.74040 36992 ft 571 kts 82°
2026-05-04 20:35 23.52721 -77.65466 36992 ft 571 kts 82°
2026-05-04 20:35 23.53746 -77.56883 36992 ft 571 kts 82°
2026-05-04 20:36 23.54766 -77.48301 36994 ft 571 kts 82°
2026-05-04 20:36 23.55912 -77.39798 36995 ft 570 kts 75°
2026-05-04 20:37 23.57120 -77.35693 36998 ft 567 kts 64°
2026-05-04 20:37 23.58950 -77.31927 37000 ft 561 kts 53°
2026-05-04 20:37 23.63348 -77.24905 36992 ft 560 kts 50°
2026-05-04 20:38 23.67928 -77.18031 36995 ft 560 kts 50°
2026-05-04 20:38 23.72502 -77.11146 36992 ft 560 kts 50°
2026-05-04 20:39 23.77046 -77.04225 36991 ft 561 kts 50°
2026-05-04 20:39 23.81554 -76.97329 36989 ft 561 kts 50°
2026-05-04 20:40 23.86078 -76.90380 36994 ft 561 kts 50°
2026-05-04 20:40 23.90603 -76.83423 36995 ft 561 kts 50°
2026-05-04 20:41 23.95127 -76.76465 36996 ft 561 kts 50°
2026-05-04 20:41 23.99644 -76.69511 36994 ft 561 kts 50°
2026-05-04 20:42 24.04167 -76.62538 36999 ft 561 kts 51°
2026-05-04 20:42 24.08690 -76.55553 36981 ft 562 kts 51°
2026-05-04 20:43 24.13203 -76.48574 36986 ft 562 kts 51°
2026-05-04 20:43 24.17687 -76.41630 36991 ft 562 kts 51°
2026-05-04 20:44 24.22195 -76.34639 36991 ft 562 kts 51°
2026-05-04 20:44 24.26702 -76.27642 36990 ft 562 kts 51°
2026-05-04 20:45 24.31212 -76.20637 36989 ft 562 kts 51°
2026-05-04 20:45 24.35717 -76.13615 36989 ft 562 kts 51°
2026-05-04 20:46 24.40215 -76.06596 36989 ft 562 kts 51°
2026-05-04 20:46 24.44714 -75.99566 36990 ft 563 kts 51°
2026-05-04 20:47 24.49207 -75.92539 36986 ft 563 kts 51°
2026-05-04 20:47 24.53704 -75.85496 36986 ft 563 kts 51°
2026-05-04 20:48 24.58191 -75.78457 36985 ft 562 kts 51°
2026-05-04 20:48 24.62650 -75.71452 36983 ft 563 kts 51°
2026-05-04 20:49 24.67141 -75.64405 36984 ft 562 kts 51°
2026-05-04 20:49 24.71764 -75.57444 36975 ft 562 kts 50°
2026-05-04 20:50 24.76420 -75.50531 36980 ft 562 kts 50°
2026-05-04 20:50 24.81051 -75.43609 36980 ft 562 kts 50°
2026-05-04 20:51 24.85673 -75.36654 36980 ft 562 kts 50°
2026-05-04 20:51 24.90287 -75.29701 36980 ft 562 kts 50°
2026-05-04 20:52 24.94863 -75.22782 36981 ft 562 kts 50°
2026-05-04 20:52 24.99471 -75.15805 36980 ft 562 kts 50°
2026-05-04 20:53 25.04075 -75.08831 36980 ft 562 kts 50°
2026-05-04 20:53 25.08677 -75.01858 36980 ft 562 kts 50°
2026-05-04 20:54 25.13253 -74.94903 36982 ft 562 kts 51°
2026-05-04 20:54 25.17845 -74.87911 36981 ft 562 kts 51°
2026-05-04 20:55 25.22433 -74.80917 36980 ft 562 kts 51°
2026-05-04 20:55 25.27020 -74.73918 36978 ft 562 kts 51°
2026-05-04 20:56 25.31607 -74.66916 36976 ft 562 kts 51°
2026-05-04 20:56 25.36162 -74.59945 36981 ft 562 kts 51°
2026-05-04 20:57 25.40742 -74.52918 36981 ft 562 kts 51°
2026-05-04 20:57 25.45316 -74.45903 36980 ft 562 kts 51°
2026-05-04 20:58 25.49879 -74.38882 36980 ft 562 kts 51°
2026-05-04 20:58 25.54451 -74.31838 36983 ft 562 kts 51°
2026-05-04 20:59 25.58243 -74.25991 36982 ft 563 kts 51°
2026-05-04 20:59 25.62809 -74.18942 36980 ft 563 kts 51°
2026-05-04 21:00 25.67378 -74.11886 36980 ft 563 kts 51°
2026-05-04 21:00 25.72712 -74.03620 36978 ft 564 kts 51°
2026-05-04 21:01 25.76503 -73.97734 36982 ft 564 kts 51°
2026-05-04 21:01 25.81805 -73.89494 36978 ft 564 kts 51°
2026-05-04 21:02 25.85620 -73.83557 36980 ft 564 kts 51°
2026-05-04 21:02 25.90143 -73.76510 36981 ft 564 kts 51°
2026-05-04 21:03 25.94690 -73.69398 36979 ft 564 kts 52°
2026-05-04 21:03 25.99133 -73.62159 36983 ft 565 kts 53°
2026-05-04 21:04 26.03520 -73.54910 36983 ft 565 kts 53°
2026-05-04 21:04 26.07903 -73.47702 36984 ft 566 kts 53°